Regional Weather Roundup
Issued by NWS New Orleans/Baton Rouge, LA

Home | Current Version | Previous Version | Text Only | Print | Product List | Glossary On
Versions: 1 2 3 4 5 6 7 8 9 10 11 12 13 14 15 16 17 18 19 20 21 22 23 24 25 26 27
000
ASUS44 KLIX 280611
RWRLIX
NEW ORLEANS REGIONAL WEATHER ROUNDUP
NATIONAL WEATHER SERVICE NEW ORLEANS LA
100 AM CDT SAT MAY 28 2016

NOTE: "FAIR" INDICATES FEW OR NO CLOUDS BELOW 12,000 FEET WITH NO
      SIGNIFICANT WEATHER AND/OR OBSTRUCTIONS TO VISIBILITY.
      SKY/WX - SKY CONDITION AND SIGNIFICANT WEATHER.
      TMP - AIR TEMPERATURE.     DP    - DEWPOINT TEMPERATURE.
      RH  - RELATIVE HUMIDITY.   PRES  - PRESSURE.
      HI  - HEAT INDEX.          WCI   - WIND CHILL INDEX.

*  THESE STATIONS ARE NOT NWS OR FAA STATIONS AND ARE NOT UNDER
   NWS QUALITY CONTROL.

LAZ038-040-048-061>063-065>067-069-280700-
SOUTHEAST LOUISIANA

CITY           SKY/WX    TMP DP  RH WIND       PRES   REMARKS
N.O. AUDUBON   NOT AVBL
N.O. INTL ARPT PTCLDY    76  70  82 SE7       29.97F
6HR MIN TEMP:  76; 6HR MAX TEMP:  81; 6HR PCP: TRACE;

N.O. LAKEFRONT MOCLDY    78  70  76 SE8       29.98F
6HR MIN TEMP:  77; 6HR MAX TEMP:  82;

N.O. DOWNTOWN*   N/A     78  71  79 VRB5      29.98F
6HR MIN TEMP:  78; 6HR MAX TEMP:  82;

RESERVE*       CLOUDY    74  71  91 CALM      29.98S
6HR MIN TEMP:  72; 6HR MAX TEMP:  82; 6HR PCP:  0.49;

SLIDELL        CLEAR     72  70  93 CALM      29.98F
6HR MIN TEMP:  72; 6HR MAX TEMP:  81; 6HR PCP: TRACE;

BATON ROUGE    CLOUDY    70  64  81 NE8       29.95F
6HR MIN TEMP:  70; 6HR MAX TEMP:  81;

BOOTHVILLE     CLOUDY    75  70  84 CALM      29.99F
6HR MIN TEMP:  75; 6HR MAX TEMP:  78;

BELLE CHASSE   CLEAR     76  71  85 SE5       29.97F
6HR MIN TEMP:  76; 6HR MAX TEMP:  80; 6HR PCP: TRACE;

BOGALUSA*        N/A     72  67  86 SE3       30.00F
6HR MIN TEMP:  72; 6HR MAX TEMP:  80;

GALLIANO*      PTCLDY    72  70  93 SE3       29.97F
6HR MIN TEMP:  72; 6HR MAX TEMP:  81;

NEW ROADS*       N/A     68  63  85 E9        29.93F
6HR MIN TEMP:  67; 6HR MAX TEMP:  80;

GONZALES*        N/A     72  70  95 E5        29.96F
6HR MIN TEMP:  71; 6HR MAX TEMP:  80;

HAMMOND*       CLOUDY    73  66  78 CALM      29.98S
HOUMA*         CLOUDY    73  71  93 CALM      29.98S
6HR MIN TEMP:  73; 6HR MAX TEMP:  79;

PORT FOURCHON* MOCLDY    79  72  78 SE5       29.97F

$$

MSZ070-080>082-280700-
SOUTHERN MISSISSIPPI

CITY           SKY/WX    TMP DP  RH WIND       PRES   REMARKS
MCCOMB         CLOUDY    70  64  81 CALM      29.98F
6HR MIN TEMP:  70; 6HR MAX TEMP:  78;

GULFPORT       CLOUDY    79  68  69 S5        29.99F
6HR MIN TEMP:  79; 6HR MAX TEMP:  80;

BILOXI         CLOUDY    79  71  76 S9        29.99R
6HR MIN TEMP:  79; 6HR MAX TEMP:  80;

PASCAGOULA     CLOUDY    75  69  81 SE3       29.99F
6HR MIN TEMP:  75; 6HR MAX TEMP:  79;


$$

COASTAL OBSERVATIONS
LAKE AND NEARSHORE STATIONS

STATION/POSITION TIME  TEMP    WIND        PRES    WAVE
                       AIR SEA DIR/SP/G            HT/PER
                 (UTC) (F)     (DEG/KT/KT) (MB)    (FT/S)
PASCAGOULA       0500   79     150/  9/ 13 1015.6
WAVELAND YACHT   0500   79 81  170/  7/ 10 1015.4
GRAND ISLE       0500   79 81  140/  5/  8 1015.2
SOUTHWEST PASS   0500          120/ 15/ 17   N/A
NEW CANAL        0500   77 81   CALM  /  3 1014.5
SHELL BEACH      0500   77 81  170/  3/  4 1015.9

OFFSHORE STATIONS

STATION/POSITION TIME  TEMP    WIND        PRES    WAVE
                       AIR SEA DIR/SP/G            HT/PER
                 (UTC) (F)     (DEG/KT/KT) (MB)    (FT/S)
64 S DAUPHIN ISL 0500   78 79  120/ 12/ 14 1015.5

$$





USA.gov is the U.S. government's official web portal to all federal, state and local government web resources and services.